www.pogodaiklimat.ru

Погода и климат >> Архив погоды >> Россия >> Приморский край >> Малиново


ПОГОДА в Малиново

  • Прогноз погоды в Малиново
  • Монитор погоды в Малиново

АРХИВ ПОГОДЫ в Малиново

Время (UTC), дата Ветер
(напр.,м/с)
 
Видим.   Явления Облачность Т
(С)
Тd
(С)
f
(%)
Тe
(С)
Тes
(С)
Комфортность P
(гПа)
Po
(гПа)
Тmin
(С)
Tmax
(С)
R
(мм)
R24
(мм)
S
(см)
03 16.09 З 4 50 км 6 баллов +21.6 +10.4 49 +23 +26 комфорт 1012.1 996.0
06 16.09 СЗ 5 50 км 4 балла +20.9 +9.5 48 +23 +24 комфорт 1012.1 996.0
09 16.09 С 3 50 км ясно +14.8 +6.1 56 +14 +14 1013.8 997.3 +21.8
12 16.09 штиль 0 50 км ясно +6.3 +4.6 89 +5 +5 1017.1 1000.0
15 16.09 штиль 0 50 км ясно +2.9 +2.5 97 +2 +2 1018.6 1001.3
18 16.09 Ю 1 20 км туман местами ясно +1.8 +1.7 99 -0 -0 1018.7 1001.3
21 16.09 Ю 1 20 км туман местами ясно +0.9 +0.9 100 -1 -1 1019.0 1001.5 +0.5
00 17.09 ЮВ 1 50 км ясно +9.9 +5.0 72 +10 +16 1018.4 1001.5
03 17.09 СВ 2 50 км ясно +17.4 +1.0 33 +18 +29 1017.7 1001.3
06 17.09 СЗ 1 50 км ясно +18.9 +2.3 33 +20 +27 1015.0 998.7
09 17.09 ЮВ 2 50 км ясно +15.0 +6.1 55 +15 +15 1013.3 996.8 +19.1
15 17.09 Ю 1 50 км ясно +5.0 +4.3 95 +4 +4 1011.7 994.7
18 17.09 Ю 2 50 км 10 баллов +4.0 +3.3 95 +1 +1 1009.1 992.0
21 17.09 В 2 10 км слаб. ливневой дождь, в посл. час гроза 10/10 600 м
[Cb cap]
+5.7 +5.2 97 +3 +3 1007.6 990.6 +3.9 2
00 18.09 З 4
{10}
50 км {гроза, ливн. осадки} 9/9 600 м
[Cb cap]
+9.5 +5.0 73 +7 +7 1011.1 994.4
03 18.09 З 3
{15}
10 км слаб. ливневой дождь 10/10 600 м
[Cb cap]
+6.1 +3.6 84 +3 +3 1012.7 995.7
06 18.09 З 2
{11}
50 км {ливн. осадки} 9/9 600 м
[Cb cap]
+9.7 +1.1 55 +9 +9 1012.8 996.0
09 18.09 С 2
{11}
50 км {ливн. осадки} 8/8 600 м
[Cb cap]
+5.6 +2.2 79 +3 +3 1014.4 997.3 +11.4 7
12 18.09 СВ 1 50 км {ливн. осадки} 10/3 600 м
[Cb cap Ac lent]
+4.6 +3.4 92 +3 +3 1013.6 996.4
15 18.09 Ю 2 50 км 4 балла +4.3 +2.5 88 +1 +1 1013.1 996.0
18 18.09 З 6-12
{12}
50 км 4/0
[Ac lent]
+8.3 -1.5 50 +5 +5 1010.2 993.4
21 18.09 ЮЗ 4-13
{13}
50 км 3/0
[Ac lent]
+6.9 -1.0 57 +4 +4 1009.6 992.7 +4.3
00 19.09 З 6-13
{19}
50 км 9/0
[Ac lent]
+8.4 -3.4 43 +5 +6 1009.7 992.9
03 19.09 З 5 50 км 9 баллов +9.6 -1.2 47 +7 +7 1011.5 994.7
06 19.09 З 4 50 км 10 баллов +11.1 +1.1 50 +9 +9 1012.7 996.0
09 19.09 З 3
{10}
50 км 10/0
[Ac As]
+10.7 +2.8 58 +9 +9 1014.0 997.3 +11.8
12 19.09 СЗ 3 50 км 10/0
[Ac und]
+11.1 +2.7 56 +10 +10 1014.3 997.6
15 19.09 С 1 50 км ясно +6.8 +2.7 75 +6 +6 1015.7 998.7
18 19.09 ЮВ 1 50 км ясно +3.7 +2.7 93 +2 +2 1017.2 1000.0
21 19.09 ЮВ 1 50 км ясно +1.8 +1.4 97 -0 -0 1018.5 1001.2 +1.8
00 20.09 ЮВ 1 50 км ясно +10.4 +4.5 67 +10 +16 1019.7 1002.8 +1.2
03 20.09 З 2 50 км 1 балл +15.9 +3.0 42 +16 +26 1020.6 1004.0
06 20.09 ЮЗ 1 50 км ясно +18.4 +3.4 37 +20 +26 1019.1 1002.7
09 20.09 штиль 0 50 км ясно +13.4 +7.4 67 +13 +13 1020.7 1004.0 +18.5
12 20.09 ЮВ 2 50 км ясно +7.8 +5.9 88 +6 +6 1022.3 1005.3
15 20.09 Ю 1 50 км ясно +4.1 +3.7 97 +2 +2 1021.3 1004.0
18 20.09 штиль 0 50 км 10 баллов +1.7 +1.6 99 0 0 1021.4 1004.0
21 20.09 Ю 1 50 км 10/3 600 м
[Cb cap Ac lent]
+3.9 +3.5 97 +2 +2 1020.0 1002.7 +0.7
00 21.09 Ю 1 20 км в посл. час ливневой дождь 10/10 600 м
[Cb cap]
+8.3 +7.3 93 +7 +7 1019.7 1002.7
03 21.09 Ю 2 10 км слаб. ливневой дождь 10 баллов +11.4 +9.1 86 +10 +10 1020.8 1004.0
06 21.09 З 1 50 км в посл. час ливневой дождь 7 баллов +13.5 +9.7 78 +14 +16 1020.7 1004.0
09 21.09 СЗ 1 50 км {ливн. осадки} 8/4 600 м
[Cb cap Ac trans]
+11.6 +8.8 83 +11 +11 1023.5 1006.7 +13.9 3
12 21.09 штиль 0 50 км 4/0
[Ac trans]
+6.6 +6.2 97 +5 +5 1023.8 1006.6
15 21.09 Ю 1 200 м туман ясно +6.0 +5.7 98 +5 +5 1025.2 1008.0
18 21.09 ЮЗ 1 200 м туман ясно +4.8 +4.7 99 +3 +3 1026.6 1009.3
21 21.09 З 1 200 м туман ясно +4.0 +3.9 99 +2 +2 1025.9 1008.6 +4.0
00 22.09 ЮВ 1 200 м туман ясно +7.2 +6.9 98 +6 +12 1026.5 1009.3
03 22.09 штиль 0 50 км 6 баллов +15.4 +7.4 59 +15 +21 1026.0 1009.3
06 22.09 З 1 50 км 2 балла +18.4 +3.1 36 +20 +25 1023.2 1006.7
09 22.09 штиль 0 50 км 10/0
[Cs]
+12.7 +7.8 72 +12 +12 1024.8 1008.0 +18.6
12 22.09 СВ 1 50 км 10/0
[Cs]
+7.3 +6.5 95 +6 +6 1023.3 1006.2
15 22.09 ЮВ 2 50 км 4 балла +5.3 +4.9 97 +3 +3 1022.5 1005.3
18 22.09 штиль 0 10 км туман местами 7 баллов +2.7 +2.6 99 +1 +1 1021.4 1004.0
21 22.09 штиль 0 200 м туман 10/0
[Ci]
+3.2 +3.1 99 +2 +2 1019.8 1002.5 +2.5

 

Местоположение метеостанции Малиново (Приморский край, Россия): широта 45.42 долгота 134.20 высота над уровнем моря 139 м.

В архиве по умолчанию представлена погода в Малиново за последнюю неделю. Архивные данные за месяц целиком и за предыдущие месяцы, начиная с января 2011 года, Вы можете получить, выбрав интересующий диапазон дат из раскрывающегося списка и нажав кнопку "Ввод!".


*Определитесь, кто Вы:
робот инопланетянин человек

Внимание! Время в таблицах - всемирное. Для получения местного времени необходимо прибавить поправку, которая равна 10 ч.

Смотрите также архив погоды в соседних городах и на ближайших метеорологических станциях:

Погода в Дальнереченске (Приморский край, Россия) (63 км)
Погода в Кировском (Приморский край, Россия) (65 км)
Погода в Лесозаводске (Приморский край, Россия) (70 км)
Погода в Мельничном (Приморский край, Россия) (102 км)
Погода в Хулине (Хэйлунцзян, Китай) (104 км)
Погода в Глубинном (Приморский край, Россия) (112 км)
Погода в Свиягино (Приморский край, Россия) (117 км)
Погода в Спасск-Дальнем (Приморский край, Россия) (141 км)
Погода в Кавалерово (Приморский край, Россия) (145 км)
Погода в Чугуевке (Приморский край, Россия) (145 км)

Пояснения к столбцам:

Ветер - указаны скорость ветра в м/с - средняя за 10 мин, порывы в срок и между сроками (в фигурных скобках) и направление, откуда дует ветер: С - северный, СВ - северо-восточный, В - восточный, ЮВ - юго-восточный, Ю - южный, ЮЗ - юго-западный, З - западный, СЗ - северо-западный.
Видимость - горизонтальная дальность видимости в метрах или километрах. При видимости от 1 до 10 км при отсутствии осадков обычно наблюдается дымка, при ухудшении видимости до 1 км и менее - туман. В сухую погоду видимость может ухудшаться дымом, пылью или мглою.
Явления - указаны атмосферные явления, наблюдавшиеся в срок или в последний час перед сроком; фигурными скобками обозначены явления, наблюдавшиеся между сроками (за 1-3 часа до срока); квадратными скобками обозначены град или гололедные отложения с указанием их диаметра в мм.
Облачность - указаны через наклонную черту общая и нижняя облачность в баллах и высота нижней границы облаков в метрах; квадратными скобками обозначены формы облаков: Ci - перистые, Cs - перисто-слоистые, Cc - перисто-кучевые, Ac - высококучевые, As - высокослоистые, Sc - слоисто-кучевые, Ns - слоисто-дождевые, Cu - кучевые, Cb - кучево-дождевые. Подробнее классификацию облаков см. в Атласе облаков (PDF).
T - Температура воздуха - температура, измеренная на высоте 2 м над землей.
Td - Температура точки росы - температура, при понижении до которой содержащийся в воздухе водяной пар достигнет насыщения.
f - Относительная влажность воздуха - влажноcть воздуха, измеренная на высоте 2 м над землей.
Te - Эффективная температура - температура, которую ощущает одетый по сезону человек в тени. Характеристика душности погоды. При расчете учитывается влияние влажности воздуха и скорости ветра на теплоощущения человека.
Tes - Эффективная температура на солнце - температура, которую ощущает человек, с поправкой на солнечный нагрев. Характеристика знойности погоды. Зависит от высоты солнца над горизонтом, облачности и скорости ветра. Ночью, в пасмурную погоду, а также при ветре 12 м/с и более поправка равна нулю.
P - Атмосферное давление - приведенное к уровню моря атмосферное давление.
Po - Атмосферное давление - измеренное на уровне метеостанции атмосферное давление.
Tmin - Минимальная температура - минимум температуры воздуха на высоте 2 м над землей.
Tmax - Максимальная температура - максимум температуры воздуха на высоте 2 м над землей.
R - Количество осадков - Количество выпавших осадков за период времени, мм. При наведении курсора мыши на число - период времени, за который выпало указанное количество осадков.
R24 - Количество осадков - Количество выпавших осадков за 24 часа, мм.
S - Снежный покров - Высота снежного покрова, см. При наведении курсора мыши на число - состояние снежного покрова и степень покрытия местности в баллах.